Location: Platte
(43.3870°N, 98.8440°W)
Time: 23:32:43
(UTC-05:00)

Landsat 7 - Visible Passes

Search period start: 20 April 2014 00:00
Search period end: 30 April 2014 00:00
Orbit: 702 x 703 km, 98.2° (Epoch: 20 April)

Date Brightness Start Highest point End Pass type
(mag) Time Alt. Az. Time Alt. Az. Time Alt. Az.
20 Apr 5.5 00:00:00 27° WNW 23:59:45 29° WNW 00:02:51 10° NNW visible
20 Apr 3.7 23:03:33 72° ENE 23:03:33 72° ENE 23:08:14 10° N visible
21 Apr 6.4 00:42:26 12° W 00:42:26 12° W 00:43:46 10° WNW visible
21 Apr 5.2 22:07:51 21° E 22:08:51 22° ENE 22:12:30 10° NNE visible
21 Apr 4.8 23:46:44 42° W 23:46:44 42° W 23:50:51 10° NNW visible
22 Apr 3.9 22:51:02 54° E 22:51:19 55° ENE 22:55:58 10° N visible
23 Apr 6.1 00:29:55 17° W 00:29:55 17° W 00:32:26 10° NW visible
23 Apr 5.5 21:55:21 16° E 21:56:47 18° ENE 21:59:54 10° NNE visible
23 Apr 4.2 23:34:13 57° W 23:34:13 57° W 23:38:46 10° NNW visible
24 Apr 4.3 22:38:32 39° E 22:39:11 42° ENE 22:43:39 10° N visible
25 Apr 5.7 00:17:24 22° W 00:17:24 22° W 00:20:45 10° NW visible
25 Apr 5.8 21:42:50 11° E 21:44:44 14° ENE 21:47:06 10° NNE visible
25 Apr 3.8 23:21:43 75° WSW 23:21:51 76° WSW 23:26:37 10° NNW visible
26 Apr 4.7 22:26:01 29° E 22:27:03 32° ENE 22:31:16 10° N visible
27 Apr 5.3 00:04:54 28° W 00:04:54 28° W 00:08:53 10° NW visible
27 Apr 6.0 21:31:40 10° ENE 21:32:42 11° ENE 21:33:43 10° NE visible
27 Apr 3.6 23:09:12 73° SE 23:09:38 83° ENE 23:14:25 10° NNW visible
28 Apr 6.4 00:48:04 11° W 00:48:04 11° W 00:49:05 10° WNW visible
28 Apr 5.1 22:13:30 22° E 22:14:56 25° ENE 22:18:48 10° N visible
28 Apr 4.8 23:52:23 37° W 23:52:29 37° W 23:56:54 10° NNW visible
29 Apr 3.8 22:56:41 54° ESE 22:57:26 63° ENE 23:02:09 10° N visible
